{"data":{"norad_id":64345,"intl_designator":"2025-126B","name":"STARLINK-34426","alt_names":[],"object_type":"PAYLOAD","status":"ACTIVE","operator":null,"country":"US","launch_date":"2025-06-13","launch_site_code":"AFWTR","launch_vehicle":null,"mission":null,"orbit_class":"UNKNOWN","rcs_meters":null,"size_class":null,"mass_kg":null,"dimensions":null,"purposes":["comms"],"wikipedia_slug":null,"has_3d_model":false,"image_url":null,"decayed_at":null,"tle_current":{"epoch":"2026-05-24T20:37:00.670656Z","epoch_age_seconds":77426,"freshness":"FRESH","line1":"1 64345U 25126B   26144.85903554  .00003106  00000+0  26783-3 0  9992","line2":"2 64345  70.0004 202.3113 0003743 261.1324  98.9411 14.98347730 52097","mean_motion":14.9834773,"eccentricity":0.0003743,"inclination_deg":70.0004,"raan_deg":202.3113,"arg_perigee_deg":261.1324,"mean_anomaly_deg":98.9411,"bstar":0.00026783,"rev_number":5209,"period_min":96.105861888281,"perigee_km":569.39962624567,"apogee_km":574.60249959958,"semimajor_km":6950.1380629226,"source":"CELESTRAK","updated_at":"2026-05-25T13:38:20.399996Z"}}}